Lid_Strength_Index
-2 -2 -2 -1 -1 -1 -0 -1 -1 -0 1 1 1 2 3 3 3 4 7 5 4 2 2 5 4 6 6 7 7 7 12 14 12 14 14 12 13 10 6 9 7 6 6 6 2
-2 -2 -2 -1 -1 -1 -1 -1 -1 1 2 1 1 2 2 3 5 6 3 4 3 1 5 6 6 7 9 8 8 9 12 12 12 13 14 12 12 13 9 9 8 7 6 6 5
-2 -2 -2 -1 -1 -1 -1 -1 -1 -0 1 2 1 2 2 2 7 7 2 3 1 1 3 5 4 6 9 9 10 9 12 12 12 10 12 11 12 12 11 13 11 9 8 6 6
-2 -2 -2 -2 -2 -1 -1 -1 -1 -1 0 3 2 2 1 3 12 5 1 1 -1 0 3 3 5 8 10 10 8 10 10 11 10 11 11 12 11 12 12 12 9 9 7 7 7
-1 -2 -2 -2 -1 -1 -1 -1 -0 -0 -0 2 2 1 3 6 7 3 1 0 1 2 4 4 6 7 10 9 9 10 10 10 10 11 11 10 12 11 12 10 9 8 8 8 7
-1 -1 -2 -1 -0 -0 -1 -1 -0 -1 -1 1 1 1 5 10 4 3 3 2 2 4 4 5 5 5 8 9 9 9 10 11 10 11 11 11 12 12 11 10 9 8 10 8 8
-1 -1 -0 0 0 0 -0 -1 -1 -1 -1 -1 0 2 7 8 3 3 2 2 2 4 5 5 5 6 7 9 8 9 11 11 11 11 12 11 13 13 11 10 10 11 11 11 9
-0 -0 -0 -0 0 0 1 -1 -1 -2 -2 -1 -0 3 10 4 3 3 3 3 3 3 4 4 4 5 7 7 8 11 11 14 11 11 11 11 14 12 11 11 11 11 12 12 11
-0 -1 -1 0 0 1 1 -0 -1 -2 -1 -1 2 5 10 3 5 4 3 4 4 4 5 4 5 7 7 11 13 11 15 14 13 11 12 11 13 11 10 11 12 12 12 12 12
-0 0 0 2 2 0 -0 -0 -1 -1 -0 0 1 8 8 7 5 4 4 3 5 6 7 7 8 10 10 12 17 15 15 14 14 11 11 13 13 12 11 11 12 12 12 12 12
1 1 1 1 1 1 3 4 6 6 4 7 7 7 6 4 4 5 4 5 6 8 11 9 12 13 11 10 10 11 13 14 12 10 12 12 12 12 11 12 12 12 12 12 12
1 1 1 2 2 2 4 7 7 7 8 4 5 5 5 4 8 6 5 8 9 12 10 11 13 10 9 9 11 11 13 14 11 11 11 12 12 10 11 11 11 11 11 11 12
3 1 1 1 3 4 6 7 5 4 8 6 4 6 6 5 8 8 6 8 10 11 11 12 11 9 10 11 12 12 13 13 13 12 12 14 15 13 11 10 10 10 10 10 10
4 2 1 1 4 5 7 6 5 4 13 10 8 6 6 5 8 5 6 8 9 11 11 11 9 10 11 12 11 14 10 12 12 13 18 13 19 16 12 11 11 10 10 10 10
4 4 2 1 5 7 5 5 6 5 22 9 8 3 6 9 8 7 5 7 11 10 10 12 12 12 12 12 10 12 11 12 12 14 14 16 19 16 13 12 12 11 10 10 10
5 4 3 5 6 5 4 5 6 17 23 12 8 9 10 9 9 7 7 6 7 10 10 11 10 11 11 10 10 10 12 12 13 15 21 16 17 18 15 12 11 11 10 10 10
6 5 6 5 8 5 4 6 16 21 12 13 12 10 11 12 10 10 10 11 12 14 15 12 12 11 10 12 10 11 14 20 21 19 20 15 17 16 12 11 11 11 11 10 10
6 6 7 7 6 5 6 12 21 15 14 9 11 10 13 12 12 11 13 14 11 12 14 15 17 12 10 11 12 12 13 18 22 21 19 16 18 15 12 12 12 12 11 10 10
6 10 10 9 7 6 10 19 19 14 10 11 10 13 13 11 12 13 13 13 11 11 14 15 15 11 10 9 9 12 14 11 16 18 19 18 16 13 14 14 13 13 12 11 11
12 12 11 8 7 8 14 14 14 9 9 9 14 12 14 14 14 14 14 12 12 10 10 12 15 12 10 9 10 11 10 15 16 22 22 19 18 16 15 14 14 14 13 13 13
12 14 10 8 8 12 19 15 13 9 9 10 11 12 12 13 13 14 14 12 11 10 9 11 13 14 11 12 12 12 13 12 13 15 19 20 18 14 14 13 13 14 12 13 13
14 20 10 9 18 15 17 19 11 11 9 10 10 11 11 11 12 12 14 12 10 10 12 10 12 16 14 10 9 10 12 11 16 17 16 16 17 12 12 12 12 12 12 12 12
16 18 11 11 23 27 19 17 14 12 12 11 11 10 9 11 13 11 10 8 9 10 11 11 16 22 17 14 12 13 11 11 11 12 16 18 16 13 13 13 12 12 12 11 13
17 23 18 16 14 17 22 20 19 12 12 10 10 10 11 12 10 13 13 9 8 9 7 8 12 15 18 17 14 14 12 11 12 16 15 15 13 12 13 13 12 12 11 12 12
17 22 20 25 22 21 17 18 18 19 15 12 13 12 12 16 13 12 10 10 9 7 8 9 15 14 13 13 13 14 15 13 13 12 15 13 13 11 10 9 12 11 12 12 12
20 21 20 20 17 20 19 23 18 16 16 18 18 13 12 14 14 13 12 10 11 9 10 9 14 13 15 13 14 14 12 12 13 13 12 12 13 10 9 10 10 10 11 12 12
14 15 17 17 18 20 21 18 17 15 15 14 14 15 16 13 13 11 10 10 10 11 11 12 13 14 17 13 14 16 14 13 12 12 12 14 12 10 11 11 9 8 11 11 11